Miscellaneous Local Product
Issued by NWS Hastings, NE

Home | Current Version | Previous Version | Text Only | Print | Product List | Glossary On
Versions: 1 2 3 4 5 6 7 8 9 10 11 12 13 14 15 16 17 18 19 20 21 22 23 24 25 26 27 28 29 30 31 32 33 34 35 36 37 38 39 40 41 42 43 44 45 46 47 48 49 50
196
AXUS43 KGID 201802
MISGRI

GID CWA HOURLY WEATHER ROUNDUP
NATIONAL WEATHER SERVICE HASTINGS NE
1200 PM CST MON FEB 20 2017

NOTE: "FAIR" INDICATES FEW OR NO CLOUDS BELOW 12,000 FEET WITH NO
SIGNIFICANT WEATHER AND/OR OBSTRUCTIONS TO VISIBILITY.

...SOUTH CENTRAL NEBRASKA...

CITY           SKY/WX    TMP DP  RH WIND       PRES   REMARKS
GRAND ISLAND   PTSUNNY   59  44  57 NW17      29.76R
HASTINGS       CLOUDY    59  41  51 NW21      29.76S
KEARNEY        MOSUNNY   61  39  44 NW24G30   29.80R
ORD            CLOUDY    55  40  56 NW25G33   29.78R
YORK           CLOUDY    59  52  77 SW14      29.76R
AURORA         CLOUDY    59  47  64 W12       29.75R
LEXINGTON      CLOUDY    55  36  48 N24G33    29.85R
HOLDREGE       CLOUDY    58  38  49 N21G33    29.81R
HEBRON         CLOUDY    61  52  73 SW12      29.76R

...NEBRASKA PANHANDLE...

CITY           SKY/WX    TMP DP  RH WIND       PRES   REMARKS
CHADRON        SUNNY     54  31  41 NW18      29.89S
ALLIANCE       SUNNY     55  25  31 NW18G26   29.90S
SCOTTSBLUFF    SUNNY     55  19  24 W12       29.96R
SIDNEY         SUNNY     53  19  26 NW22G31   29.96R

...WESTERN AND NORTH CENTRAL NEBRASKA...

CITY           SKY/WX    TMP DP  RH WIND       PRES   REMARKS
VALENTINE      CLOUDY    55  34  45 NW18G29   29.82R
AINSWORTH      CLOUDY    50  41  70 NW24      29.82R
ONEILL         CLOUDY    54  44  67 NW29G40   29.78R
BROKEN BOW     CLOUDY    52  40  63 N31G38    29.81R
IMPERIAL       SUNNY     57  26  30 N25G35    29.91R
NORTH PLATTE   CLOUDY    57  36  45 NW23G31   29.88R
MCCOOK         SUNNY     61  36  39 N29G36    29.86R

...EASTERN NEBRASKA...

CITY           SKY/WX    TMP DP  RH WIND       PRES   REMARKS
NORFOLK        CLOUDY    58  50  75 W12       29.70F
SO SIOUX CITY  CLOUDY    61  57  87 SW10      29.70F
TEKAMAH        CLOUDY    61  55  82 S15       29.71F
COLUMBUS       PTSUNNY   59  52  77 SW9       29.73F
ALBION         MOSUNNY   59  43  55 NW18G25   29.75R
OMAHA EPPLEY   CLOUDY    61  56  83 S9        29.73R
OFFUTT AFB     CLOUDY    61  57  88 S13       29.74F
MILLARD        CLOUDY    62  59  88 S7        29.74F
LINCOLN        CLOUDY    61  56  83 SW14      29.76R
NEBRASKA CITY  CLOUDY    60  60  98 SW15      29.77S
BEATRICE       CLOUDY    61  57  85 S16       29.77R
FALLS CITY     CLOUDY    62  58  86 S16       29.79F

...NORTHERN KANSAS...

CITY           SKY/WX    TMP DP  RH WIND       PRES   REMARKS
GOODLAND       SUNNY     58  17  20 NW31G39   29.94R
HILL CITY      SUNNY     62  33  33 N25G37    29.85R
NORTON         CLEAR     59  32  36 NW32G39   29.84R
SMITH CENTER   SUNNY     63  36  36 NW23G29   29.80R
HAYS           SUNNY     63  29  27 NW23G29   29.83R
RUSSELL        SUNNY     65  31  28 NW21G31   29.80R
CONCORDIA      PTSUNNY   60  54  80 SW9       29.78R
SALINA         CLOUDY    61  53  75 S10       29.81S
TOPEKA         CLOUDY    63  57  81 S7G18     29.83R



USA.gov is the U.S. government's official web portal to all federal, state and local government web resources and services.